This demonstration page uses our WeatherBlox Daily Observations layout. Learn more.

Left ArrowRight Arrow

34.74481, -87.66753

Hourly Observations for April 19, 2015

Temp ( °F °C ) Dew Point ( °F °C ) Humidity (%) Winds ( mph kmh ) Pressure ( in mb ) Visibility ( mi km ) Precip ( " mm )
12:53 am 00:53 Cloudy with Light Rain 66 18.9 63 17.2 90 90 ESE 3 6 29.80 1009 8 13 0.02 0.51
1:02 am 01:02 Cloudy with Light Rain 66 18.9 63 17.2 90 90 ESE 3 6 29.80 1009 8 13 0.01 0.25
1:53 am 01:53 Cloudy with Rain 65 18.3 63 17.2 93 93 Calm 29.78 1008 4 6 0.06 1.52
2:09 am 02:09 Cloudy with Rain 66 18.9 63 17.2 90 90 Calm 29.77 1008 5 8 0.03 0.76
2:31 am 02:31 Cloudy with Rain 65 18.3 63 17.2 93 93 E 3 6 29.77 1008 4 6 0.08 2.03
2:39 am 02:39 Cloudy with Rain 65 18.3 63 17.2 93 93 E 3 6 29.77 1008 5 8 0.09 2.29
2:53 am 02:53 Cloudy with Rain 65 18.3 63 17.2 93 93 Calm 29.75 1007 5 8 0.11 2.79
3:01 am 03:01 Cloudy with Light Rain 65 18.3 63 17.2 93 93 Calm 29.77 1008 5 8 0.00 0.03
3:24 am 03:24 Cloudy with Rain 65 18.3 63 17.2 93 93 ESE 5 7 29.74 1007 3 5 0.06 1.52
3:36 am 03:36 Cloudy with Heavy Rain 65 18.3 63 17.2 93 93 ESE 5 7 29.74 1007 2 3 0.18 4.57
3:41 am 03:41 Cloudy with Heavy Rain 65 18.3 63 17.2 93 93 ESE 5 7 29.74 1007 2 3 0.22 5.59
3:47 am 03:47 Cloudy with Rain 64 18 63 17 94 94 ESE 7 11 29.74 1007 3 5 0.23 5.84
3:48 am 03:48 Cloudy with Rain 65 18.3 63 17.2 93 93 ESE 7 11 29.72 1006 3 5 0.23 5.84
3:59 am 03:59 Cloudy with Rain 65 18.3 63 17.2 93 93 ESE 6 9 29.74 1007 4 6 0.03 0.76
4:05 am 04:05 Cloudy with Rain 66 18.9 63 17.2 90 90 SE 6 9 29.74 1007 4 6 0.04 1.02
4:10 am 04:10 Cloudy with Heavy Rain 65 18.3 63 17.2 93 93 ESE 6 9 29.74 1007 3 4 0.11 2.79
4:27 am 04:27 Cloudy with Rain 66 18.9 63 17.2 90 90 SE 7 11 29.71 1006 4 6 0.19 4.83
4:38 am 04:38 Cloudy with Rain 66 18.9 63 17.2 90 90 SE 3 6 29.71 1006 4 6 0.24 6.10
4:53 am 04:53 Cloudy with Rain 66 18.9 63 17.2 90 90 E 5 7 29.69 1005 5 8 0.27 6.86
5:53 am 05:53 Cloudy with Light Rain 66 18.9 63 17.2 90 90 ESE 6 9 29.66 1005 8 13 0.01 0.25
6:19 am 06:19 Cloudy with Light Rain 66 18.9 63 17.2 90 90 SSE 10 17 29.68 1005 5 8 0.07 1.78
6:36 am 06:36 Cloudy with Light Rain 66 18.9 64 17.8 93 93 SW 5 7 29.68 1005 2 3 0.10 2.54
6:41 am 06:41 Cloudy with Light Rain 66 18.9 64 17.8 93 93 WSW 7 11 29.68 1005 5 8 0.10 2.54
6:53 am 06:53 Cloudy with Light Rain 66 18.9 64 17.8 93 93 WSW 7 11 29.68 1005 2 3 0.12 3.05
6:56 am 06:56 Cloudy with Light Rain 66 18.9 64 17.8 93 93 WSW 6 9 29.71 1006 3 5 0.00 0.03
7:40 am 07:40 Cloudy 67 19.4 64 17.8 91 91 WSW 8 13 29.71 1006 10 16 0.01 0.25
7:53 am 07:53 Mostly Cloudy 67 19.4 63 17.2 87 87 SW 9 15 29.70 1006 10 16 0.01 0.25
8:01 am 08:01 Cloudy 67 19.4 63 17.2 87 87 SW 10 17 29.71 1006 10 16 0.00 0.00
8:43 am 08:43 Cloudy 68 20 63 17.2 84 84 SW 12 19 29.71 1006 10 16 0.00 0.00
8:51 am 08:51 Cloudy 68 20 63 17 83 83 SW 12 19 29.71 1006 10 16 0.00 0.00
8:53 am 08:53 Cloudy 68 20 63 17.2 84 84 SW 12 19 29.69 1005 10 16 0.00 0.00
9:21 am 09:21 Mostly Cloudy 69 20.6 63 17.2 81 81 SW 13 20 29.71 1006 10 16 0.00 0.00
9:53 am 09:53 Mostly Cloudy 72 22.2 64 17.8 76 76 SW 12 19 29.66 1004 10 16 0.00 0.00
10:53 am 10:53 Cloudy 72 22.2 63 17.2 73 73 SW 10 17 29.66 1004 10 16 0.00 0.00
11:39 am 11:39 Cloudy 72 22.2 63 17.2 73 73 SW 8 13 29.68 1005 10 16 0.00 0.00
11:53 am 11:53 Mostly Cloudy 74 23.3 64 17.8 71 71 SSW 13 20 29.66 1004 10 16 0.00 0.00
12:53 pm 12:53 Partly Cloudy 75 23.9 62 16.7 64 64 SW 12 19 29.65 1004 10 16 0.00 0.00
1:53 pm 13:53 Partly Cloudy 76 24.4 64 17.8 67 67 WSW 16 26 29.63 1003 10 16 0.04 1.02
2:43 pm 14:43 Mostly Cloudy with Nearby Thunderstorms 74 23.3 63 17.2 69 69 WSW 17 28 29.62 1003 10 16 0.00 0.00
2:53 pm 14:53 Mostly Cloudy with Nearby Thunderstorms 74 23.3 62 16.7 67 67 W 13 20 29.62 1003 10 16 0.00 0.03
3:29 pm 15:29 Cloudy with Light Rain 67 19.4 61 16.1 81 81 W 10 17 29.62 1003 10 16 0.01 0.25
3:53 pm 15:53 Mostly Sunny 71 21.7 62 16.7 73 73 W 10 17 29.62 1003 10 16 0.01 0.25
4:53 pm 16:53 Partly Cloudy 72 22.2 61 16.1 68 68 WSW 15 24 29.62 1003 10 16 0.01 0.25
5:53 pm 17:53 Partly Cloudy 72 22.2 60 15.6 66 66 WSW 18 30 29.63 1003 10 16 0.00 0.00
6:53 pm 18:53 Sunny 71 21.7 60 15.6 68 68 WSW 9 15 29.63 1004 10 16 0.00 0.00
7:53 pm 19:53 Clear 68 20 59 15 73 73 SW 6 9 29.64 1004 10 16 0.00 0.00
8:53 pm 20:53 Clear 64 17.8 59 15 84 84 ESE 3 6 29.66 1004 10 16 0.00 0.00
9:53 pm 21:53 Clear 62 16.7 58 14.4 86 86 SSE 5 7 29.65 1004 10 16 0.00 0.00
10:53 pm 22:53 Clear 61 16.1 57 13.9 87 87 SE 6 9 29.65 1004 10 16 0.00 0.00
11:53 pm 23:53 Mostly Clear 63 17.2 57 13.9 81 81 S 6 9 29.64 1004 10 16 0.00 0.00

Powered by AerisWeather